FENGYUN 1C DEB, 30954

Orbit data source: Space-Track

FENGYUN 1C DEB, 30954 is space debris in SSO originally from a launch on Mon, 10 May 1999 UTC launched from the Taiyaun Space Center, China (TSC). Fengyun 1C debris stems from the Chinese weather satellite Fengyun-1C, which was intentionally destroyed by a Chinese anti-satellite missile in 2007. This event dramatically increased the amount of space debris, with thousands of trackable fragments posing hazards to satellites and human spaceflight. The Fengyun 1C debris cloud has become a focal point in discussions about space sustainability and the need for international regulations to prevent the creation of new debris.

Loading next visibility...
Identifier
30954, 1999-025BAU
Orbit
SSO
Country
Flag of CNCN / PRC
Related business
Manufacturer
Unknown
Mission
Spacecraft
Bus & Motor
Unknown
Mass
Unknown
Launch date (UTC)
1999-05-10 (27 years ago)
Launch vehicle
Unknown
Launch site
Taiyaun Space Center, China (TSC)
Object type
Payload
Rocket body
Debris
Shape & HBR
Unknown shape, 0.1 m
Radar Cross Section
Small (<0.1 m²)

Expand to show TLE details & history
Last TLE update: 13 hours ago

TLE from 13 hours ago
0 FENGYUN 1C DEB
1 30954U 99025BAU 26123.77225113  .00002010  00000-0  96857-3 0  9999
2 30954  98.7109 225.6199 0128796 141.2528  11.5888 14.15534273983968
Epoch: 2026-05-03T18:32Z
TLE epoch observation values (Epoch: 2026-05-03T18:32:02.497Z)
Latitude
26.56063°
Longitude
-89.69231°
Altitude
752.674 km
Speed
7.528 km/s
True Right ascension
03h 19m 57s
True Declination
26° 25' 24"
Sunlit
Object was in daylight at epoch
Visualization orbit readout
Latitude
Unknown
Longitude
Unknown
Altitude
Unknown
Speed
Unknown
Apparent Right ascension
Unknown
Apparent Declination
Unknown
Sunlit
N/A
Visualization observer readout
Local Sidereal Time
15:03:43
Azimuth
Unknown
Elevation
Unknown
Doppler factor
Unknown
Orbital elements
Apogee altitude
930.596 km
Perigee altitude
744.723 km
Semi-major axis
7,215.796 km
Eccentricity
0.01288
Inclination
98.7109°
RAAN
225.6199°
Arg. of periapsis
141.2528°
True anomaly
11.89003°
Mean anomaly
11.5888°
Eccentric anomaly
11.73894°
Mean motion
3.54093 °/min
Orbital period
101.67 mins
BSTAR
0.00096857
Loading maneuver chart data...
Computing Atmospheric mass density...
Loading historical data...
Loading historical data...
Loading historical data...
Loading historical data...
Loading historical data...
Loading historical data...
Loading historical data...

Documentation

Showing up to 5 results
|